Location: Arboucave
(43.6130°N, 0.4343°W)
Time: 10:50:54
(UTC+00:00)

Daily predictions for brighter satellites

Satellite Brightness Start Highest point End
(mag) Time Altitude Azimuth Time Altitude Azimuth Time Altitude Azimuth
Iridium 4 Rocket 4.0 16:59:34 10° SSW 17:04:38 62° W 17:09:17 10° N
Cosmos 2233 Rocket 4.0 17:00:36 10° S 17:06:51 75° E 17:13:11 10° N
Cosmos 1725 Rocket 4.3 17:01:36 10° SSW 17:07:51 75° W 17:14:12 10° N
Cosmos 407 Rocket 3.9 17:03:01 10° S 17:07:55 44° ESE 17:12:47 10° NNE
CBERS-1 4.3 17:03:38 10° S 17:08:44 78° WSW 17:13:53 10° NNW
Cosmos 2061 Rocket 4.0 17:03:08 10° S 17:09:23 71° E 17:15:36 10° NNE
RESURS DK-1 3.1 17:06:41 10° N 17:10:12 28° NE 17:13:41 10° ESE
Cosmos 1782 Rocket 3.6 17:09:19 10° S 17:13:45 89° W 17:18:12 10° N
ISS -3.8 17:10:31 10° WSW 17:13:52 89° NW 17:17:12 10° ENE
CZ-2D R/B 3.2 17:12:05 10° SE 17:15:02 37° ENE 17:18:00 10° N
Cosmos 1869 3.5 17:12:20 10° SSE 17:15:36 36° E 17:18:51 10° NNE
SPOT 1/Viking Rocket 4.5 17:13:43 10° ESE 17:17:54 26° ENE 17:22:06 10° N
Cosmos 1300 Rocket 3.9 17:13:33 10° SSW 17:17:56 72° W 17:22:19 10° N
SJ-12 3.9 17:18:09 10° SSE 17:21:49 49° ENE 17:25:29 10° N
IGS 5A 3.8 17:18:46 10° S 17:22:42 66° WSW 17:26:43 10° NNW
COSMO-SKYMED 1 4.0 17:21:35 10° NE 17:24:13 16° E 17:26:51 10° SE
SL-12 R/B(2) 4.3 17:17:52 10° SSW 17:25:34 73° ESE 17:34:58 10° NE
AQUARIUS 4.4 17:21:24 10° SE 17:25:36 46° ENE 17:29:50 10° N
BREEZE-M DEB (TANK) 2.0 17:26:14 10° WSW 17:28:29 66° NNW 17:32:21 13° ENE
Cosmos 1400 Rocket 4.2 17:27:04 10° SE 17:29:39 18° E 17:31:12 14° ENE
Cosmos 540 Rocket 3.6 17:25:31 10° N 17:30:31 50° ENE 17:35:28 10° SE
Cosmos 1975 Rocket 3.0 17:29:43 10° N 17:34:04 89° W 17:38:27 10° S
Cosmos 1812 2.5 17:32:18 10° SSE 17:35:00 35° E 17:37:34 11° NNE
Cosmos 1763 Rocket 3.4 17:30:50 10° NNW 17:36:02 67° ENE 17:41:08 10° SSE
CORIOLIS 4.4 17:32:43 10° S 17:38:04 74° WSW 17:43:26 10° NNW
Cosmos 1140 Rocket 4.4 17:34:48 10° SW 17:39:49 50° WNW 17:44:50 10° N
Cosmos 2151 Rocket 4.3 17:36:14 10° SSE 17:40:11 31° E 17:44:10 10° NNE
SMAP 3.4 17:36:59 10° S 17:41:37 69° WSW 17:46:16 10° NNW
Cosmos 44 Rocket 3.2 17:37:58 10° SSW 17:42:40 70° ESE 17:47:06 13° NE
IRS-1C 4.2 17:37:49 10° SSE 17:43:08 86° WSW 17:48:30 10° NNW
Cosmos 2058 3.2 17:40:20 10° N 17:44:04 38° ENE 17:47:46 10° SE
Cosmos 1943 Rocket 2.1 17:41:59 10° SSW 17:47:37 86° ESE 17:53:14 10° NNE
Okean 1 Rocket 4.0 17:46:31 10° SE 17:50:08 25° E 17:51:43 21° ENE
CZ-2D R/B 3.8 17:46:47 10° SE 17:50:39 41° ENE 17:54:36 10° N
SKYMED 2 3.8 17:46:52 10° NNE 17:51:04 46° E 17:55:15 10° S
PSLV R/B 4.1 17:48:47 10° SE 17:52:18 29° ENE 17:55:49 10° N
Helios 1A Rocket 3.3 17:51:57 27° ENE 17:52:36 29° E 17:55:35 10° SSE
Landsat 7 4.0 17:49:26 10° S 17:54:03 72° WSW 17:58:44 10° NNW
Cosmos 2082 Rocket 2.3 17:49:08 10° NNW 17:54:35 49° ENE 18:00:01 10° SE
Cosmos 1072 Rocket 4.5 17:50:01 10° S 17:56:00 57° E 18:01:58 10° NNE
Cosmos 2278 Rocket 2.2 17:50:44 10° SSW 17:56:23 86° WNW 18:02:05 10° NNE
Aureole 3 Rocket 2.1 17:56:40 10° S 17:59:42 88° W 18:02:51 10° N
BREEZE-M DEB (TANK) 2.8 17:57:36 10° WSW 18:00:08 74° NNW 18:03:16 23° ENE
BREEZE-M DEB (TANK) 3.4 17:58:55 10° W 18:01:17 45° NNW 18:04:09 20° NE
Cosmos 2369 Rocket 4.2 18:03:59 10° SE 18:04:20 11° SE 18:04:20 11° SE
SL-16 R/B 4.4 18:02:00 10° N 18:07:10 28° WNW 18:12:19 10° WSW
Cosmos 2251 Rocket 3.4 18:01:58 10° SSW 18:07:14 81° ESE 18:12:34 10° NNE
YAOGAN 1 2.6 18:05:58 10° SSE 18:10:04 49° ENE 18:14:12 10° N
Cosmos 371 Rocket 3.5 18:06:20 10° S 18:10:53 45° ESE 18:12:52 29° NE
Cosmos 304 Rocket 3.9 18:07:26 10° S 18:11:58 48° ESE 18:13:56 30° NE
SJ 16-02 1.2 18:09:18 10° S 18:13:32 63° ESE 18:15:42 28° NNE
SL-19 R/B 4.1 18:09:14 10° SSE 18:14:18 57° ENE 18:19:26 10° N
Cosmos 841 Rocket 3.9 18:10:45 10° N 18:15:42 40° ENE 18:17:16 32° E
CZ-4C R/B 4.5 18:16:55 10° NW 18:19:07 12° N 18:21:30 10° NNE
Nadezhda 4 Rocket 3.9 18:15:14 10° N 18:21:32 73° E 18:27:44 10° SSE
Resurs 1-3 3.4 18:17:47 10° SSE 18:22:01 63° ENE 18:26:17 10° N
Cosmos 1862 2.9 18:20:07 10° N 18:23:45 82° E 18:27:23 10° S
ATLAS 2AS CENTAUR R/B 3.6 18:19:07 10° NNW 18:24:41 26° NNE 18:25:35 25° NE
ARIANE 5 R/B 4.2 18:20:23 10° SSW 18:24:52 34° W 18:29:24 10° NNW
COSMOS 2406 3.3 18:21:51 10° NNW 18:27:23 50° ENE 18:29:07 37° ESE
Cosmos 1656 Rocket 3.9 18:22:23 10° S 18:27:37 45° ESE 18:28:33 41° E
Cosmos 468 Rocket 4.0 18:24:08 10° NNW 18:29:21 79° WSW 18:34:28 10° SSE
Okean 2 Rocket 3.0 18:30:31 10° S 18:34:54 86° W 18:37:52 21° N
Cosmos 2195 Rocket 4.4 18:29:09 10° N 18:35:25 62° E 18:41:41 10° SSE
Cosmos 1536 Rocket 3.6 18:31:29 10° NNW 18:35:55 76° W 18:40:17 10° S
MOS 1 Rocket 4.4 18:32:35 10° SSW 18:36:38 41° W 18:40:53 10° NNW
USA 215 4.1 18:31:11 10° SSE 18:37:27 48° SW 18:43:45 10° WNW
Cosmos 1190 Rocket 4.4 18:32:55 10° SSW 18:38:10 65° WNW 18:42:26 16° NNE
Cosmos 676 Rocket 3.9 18:35:44 10° SSW 18:41:02 83° ESE 18:43:15 36° NNE
Cosmos 1428 Rocket 4.4 18:34:53 10° N 18:41:12 84° E 18:47:31 10° S
Resurs 01 Rocket 4.0 18:46:22 12° N 18:46:22 12° N 18:46:44 10° N
Cosmos 489 Rocket 4.3 18:37:02 10° NNW 18:43:19 86° ENE 18:49:32 10° SSE
Cosmos 2344 4.0 18:35:36 10° NNW 18:43:24 54° NE 18:47:32 35° ESE
Meteor 2-3 Rocket 3.6 18:41:35 10° N 18:47:16 67° ENE 18:49:59 31° SSE
BlueWalker 3 3.8 18:46:56 10° SSW 18:48:23 21° SSW 18:48:23 21° SSW
ISS -1.6 18:48:07 10° WNW 18:50:07 22° NW 18:50:07 22° NW
Cosmos 1954 Rocket 4.4 18:45:55 10° SSW 18:51:08 62° WNW 18:54:18 24° N
COSMO-SKYMED 1 3.5 18:57:48 25° NNW 18:59:45 43° WNW 19:03:39 10° SW
USA 281 3.5 19:02:00 47° NE 19:02:00 47° NE 19:07:33 10° NNW
Cosmos 968 Rocket 4.5 18:57:47 10° S 19:00:38 33° S 19:00:38 33° S
Cosmos 1400 Rocket 4.4 19:01:26 10° SW 19:04:51 31° WNW 19:05:52 27° NW
Cosmos 1634 Rocket 4.0 19:02:23 10° S 19:07:38 60° SE 19:07:38 60° SE
DELTA 2 R/B (1) 4.5 19:04:04 10° SW 19:08:21 37° S 19:08:21 37° S
BREEZE-M DEB (TANK) 4.3 19:21:54 10° WNW 19:37:11 68° SW 19:37:20 68° SSW
Cosmos 2082 Rocket 4.2 19:33:49 10° NW 19:38:18 25° WSW 19:42:46 10° SSW
Cosmos 1092 Rocket 4.4 19:32:13 10° NNW 19:38:21 60° W 19:39:48 48° SW
Cosmos 2369 Rocket 4.2 19:44:41 10° SSW 19:46:11 19° SSW 19:46:11 19° SSW
SJ 16-02 4.1 19:49:46 10° W 19:52:07 14° NW 19:52:17 14° NW
ATLAS 2AS CENTAUR R/B 4.0 20:09:39 10° NW 20:13:01 32° NW 20:13:01 32° NW
